When you browse on this site, cookies collect data to enhance your experience and personalize the content and advertising you see.
Visit our Privacy Policy to learn more. By continuing to use the site, you agree to this use of cookies and data.
  • In Hungary
  • List of Countries
  • For 7 days
  • Water Temperature
  • Satellite Maps
  • Weather Map
  • News
  • Weather Widgets
  • user-avatar
    Login

    Hourly Weather Darwin

    Today, 10 December, Monday

    Time Temperature Precipitation Wind Pressure Humidity
    00:00 +29°C° 3 mm 4 mps 755 mmHg 82%
    01:00 +29°C° 0 mm 4 mps 755 mmHg 81%
    02:00 +29°C° 0 mm 3 mps 754 mmHg 80%
    03:00 +29°C° 0 mm 3 mps 754 mmHg 81%
    04:00 +29°C° 0 mm 3 mps 754 mmHg 81%
    05:00 +29°C° 0 mm 3 mps 754 mmHg 82%
    06:00 +29°C° 0 mm 3 mps 754 mmHg 83%
    07:00 +31°C° 0.1 mm 3 mps 754 mmHg 76%
    08:00 +34°C° 0.1 mm 3 mps 754 mmHg 70%
    09:00 +36°C° 0 mm 3 mps 755 mmHg 63%
    10:00 +37°C° 0.2 mm 4 mps 755 mmHg 59%
    11:00 +38°C° 0.2 mm 4 mps 755 mmHg 54%
    12:00 +40°C° 0.2 mm 4 mps 754 mmHg 50%
    13:00 +40°C° 0 mm 5 mps 754 mmHg 51%
    14:00 +39°C° 0 mm 5 mps 754 mmHg 51%
    15:00 +39°C° 0 mm 5 mps 753 mmHg 55%
    16:00 +36°C° 1.1 mm 4 mps 753 mmHg 61%
    17:00 +35°C° 1.1 mm 4 mps 753 mmHg 67%
    18:00 +33°C° 1.1 mm 4 mps 753 mmHg 73%
    19:00 +33°C° 0.1 mm 4 mps 754 mmHg 75%
    20:00 +31°C° 0.1 mm 3 mps 754 mmHg 78%
    21:00 +31°C° 0 mm 3 mps 755 mmHg 80%
    22:00 +31°C° 1.2 mm 3 mps 754 mmHg 81%
    23:00 +30°C° 1.2 mm 3 mps 754 mmHg 81%

    Tomorrow, 11 December, Tuesday

    Time Temperature Precipitation Wind Pressure Humidity
    00:00 +30°C° 1.2 mm 3 mps 754 mmHg 82%
    01:00 +30°C° 0 mm 3 mps 754 mmHg 83%
    02:00 +30°C° 0 mm 3 mps 754 mmHg 84%
    03:00 +30°C° 0 mm 4 mps 753 mmHg 86%
    04:00 +30°C° 0 mm 4 mps 753 mmHg 87%
    05:00 +30°C° 0 mm 4 mps 754 mmHg 88%
    06:00 +30°C° 0 mm 4 mps 754 mmHg 89%
    07:00 +32°C° 0.1 mm 4 mps 754 mmHg 83%
    08:00 +34°C° 0.1 mm 4 mps 754 mmHg 76%
    09:00 +35°C° 0.1 mm 4 mps 755 mmHg 69%
    10:00 +36°C° 1.4 mm 4 mps 755 mmHg 65%
    11:00 +37°C° 1.4 mm 5 mps 754 mmHg 60%
    12:00 +39°C° 1.4 mm 5 mps 754 mmHg 56%
    13:00 +39°C° 0.2 mm 5 mps 754 mmHg 57%
    14:00 +39°C° 0.2 mm 6 mps 753 mmHg 58%
    15:00 +38°C° 0.2 mm 6 mps 753 mmHg 59%
    16:00 +36°C° 1.7 mm 6 mps 753 mmHg 67%
    17:00 +34°C° 1.7 mm 6 mps 753 mmHg 74%
    18:00 +32°C° 1.7 mm 5 mps 753 mmHg 82%
    19:00 +32°C° 0.3 mm 5 mps 753 mmHg 83%
    20:00 +32°C° 0.3 mm 5 mps 754 mmHg 84%
    21:00 +32°C° 0.3 mm 4 mps 755 mmHg 85%
    22:00 +32°C° 0 mm 5 mps 755 mmHg 85%
    23:00 +32°C° 0 mm 5 mps 755 mmHg 86%

    Day after tomorrow, 12 December, Wednesday

    Time Temperature Precipitation Wind Pressure Humidity
    00:00 +32°C° 0 mm 6 mps 754 mmHg 86%
    01:00 +32°C° 0 mm 6 mps 754 mmHg 87%
    02:00 +32°C° 0 mm 6 mps 753 mmHg 87%
    03:00 +32°C° 0 mm 6 mps 753 mmHg 88%
    04:00 +32°C° 0 mm 5 mps 753 mmHg 88%
    05:00 +32°C° 0 mm 5 mps 753 mmHg 87%
    06:00 +32°C° 0 mm 5 mps 754 mmHg 87%
    07:00 +33°C° 0 mm 5 mps 754 mmHg 81%
    08:00 +34°C° 0 mm 5 mps 754 mmHg 75%
    09:00 +35°C° 0 mm 5 mps 755 mmHg 69%
    10:00 +36°C° 0 mm 5 mps 754 mmHg 64%
    11:00 +39°C° 0 mm 5 mps 754 mmHg 58%
    12:00 +40°C° 0 mm 6 mps 753 mmHg 53%
    13:00 +39°C° 0 mm 6 mps 753 mmHg 55%
    14:00 +39°C° 0 mm 6 mps 752 mmHg 56%
    15:00 +39°C° 0 mm 7 mps 752 mmHg 57%
    16:00 +38°C° 0 mm 7 mps 752 mmHg 63%
    17:00 +35°C° 0 mm 7 mps 752 mmHg 69%
    18:00 +34°C° 0 mm 6 mps 752 mmHg 75%
    19:00 +34°C° 0 mm 7 mps 752 mmHg 77%
    20:00 +33°C° 0 mm 7 mps 753 mmHg 80%
    21:00 +33°C° 0 mm 7 mps 753 mmHg 82%
    22:00 +33°C° 0 mm 7 mps 753 mmHg 82%
    23:00 +33°C° 0 mm 7 mps 753 mmHg 81%

    13 December, Thursday

    Time Temperature Precipitation Wind Pressure Humidity
    00:00 +33°C° 0 mm 7 mps 753 mmHg 81%
    01:00 +33°C° 0.1 mm 6 mps 753 mmHg 81%
    02:00 +33°C° 0.1 mm 6 mps 753 mmHg 82%
    03:00 +33°C° 0.1 mm 6 mps 753 mmHg 82%
    04:00 +32°C° 0 mm 6 mps 753 mmHg 82%
    05:00 +32°C° 0 mm 6 mps 753 mmHg 83%
    06:00 +32°C° 0 mm 6 mps 753 mmHg 83%
    07:00 +33°C° 0 mm 6 mps 754 mmHg 79%
    08:00 +34°C° 0 mm 6 mps 754 mmHg 75%
    09:00 +35°C° 0 mm 6 mps 755 mmHg 71%
    10:00 +36°C° 0 mm 6 mps 754 mmHg 67%
    11:00 +38°C° 0 mm 7 mps 754 mmHg 63%
    12:00 +39°C° 0 mm 7 mps 754 mmHg 59%
    13:00 +38°C° 0 mm 7 mps 753 mmHg 59%
    14:00 +38°C° 0 mm 7 mps 753 mmHg 60%
    15:00 +38°C° 0 mm 8 mps 752 mmHg 61%
    16:00 +37°C° 0 mm 8 mps 752 mmHg 65%
    17:00 +35°C° 0 mm 7 mps 753 mmHg 68%
    18:00 +34°C° 0 mm 7 mps 753 mmHg 72%
    19:00 +34°C° 0 mm 7 mps 753 mmHg 74%
    20:00 +33°C° 0 mm 7 mps 753 mmHg 76%
    21:00 +33°C° 0 mm 7 mps 753 mmHg 78%
    22:00 +33°C° 0 mm 6 mps 754 mmHg 78%
    23:00 +33°C° 0 mm 6 mps 754 mmHg 79%

    14 December, Friday

    Time Temperature Precipitation Wind Pressure Humidity
    00:00 +33°C° 0 mm 6 mps 754 mmHg 79%
    01:00 +33°C° 0.1 mm 6 mps 754 mmHg 80%
    02:00 +32°C° 0.1 mm 7 mps 753 mmHg 80%
    03:00 +32°C° 0.1 mm 7 mps 752 mmHg 81%
    04:00 +32°C° 0.1 mm 7 mps 753 mmHg 80%
    05:00 +32°C° 0.1 mm 7 mps 753 mmHg 80%
    06:00 +32°C° 0.1 mm 7 mps 753 mmHg 79%
    07:00 +33°C° 0 mm 7 mps 754 mmHg 76%
    08:00 +34°C° 0 mm 7 mps 755 mmHg 73%
    09:00 +35°C° 0 mm 7 mps 755 mmHg 71%
    10:00 +35°C° 0.3 mm 7 mps 755 mmHg 69%
    11:00 +36°C° 0.3 mm 7 mps 754 mmHg 67%
    12:00 +36°C° 0.3 mm 7 mps 754 mmHg 65%
    13:00 +36°C° 0.2 mm 7 mps 753 mmHg 63%
    14:00 +36°C° 0.2 mm 6 mps 752 mmHg 62%
    15:00 +38°C° 0.2 mm 6 mps 752 mmHg 61%
    16:00 +36°C° 0 mm 6 mps 752 mmHg 65%
    17:00 +35°C° 0 mm 6 mps 752 mmHg 69%
    18:00 +34°C° 0 mm 5 mps 752 mmHg 73%
    19:00 +33°C° 0 mm 5 mps 753 mmHg 76%
    20:00 +33°C° 0 mm 5 mps 753 mmHg 78%
    21:00 +33°C° 0 mm 5 mps 754 mmHg 80%
    22:00 +32°C° 0 mm 5 mps 754 mmHg 81%
    23:00 +32°C° 0 mm 5 mps 754 mmHg 82%

    15 December, Saturday

    Time Temperature Precipitation Wind Pressure Humidity
    00:00 +32°C° 0 mm 5 mps 754 mmHg 82%
    01:00 +32°C° 0.4 mm 5 mps 753 mmHg 84%
    02:00 +32°C° 0.4 mm 5 mps 753 mmHg 85%
    03:00 +30°C° 0.4 mm 5 mps 752 mmHg 86%
    04:00 +30°C° 0.1 mm 5 mps 753 mmHg 86%
    05:00 +30°C° 0.1 mm 4 mps 753 mmHg 86%
    06:00 +30°C° 0.1 mm 4 mps 753 mmHg 86%
    07:00 +33°C° 0 mm 4 mps 753 mmHg 81%
    08:00 +34°C° 0 mm 5 mps 754 mmHg 76%
    09:00 +35°C° 0 mm 6 mps 754 mmHg 70%
    10:00 +35°C° 0.6 mm 5 mps 754 mmHg 70%
    11:00 +35°C° 0.6 mm 5 mps 753 mmHg 69%
    12:00 +36°C° 0.6 mm 5 mps 753 mmHg 68%
    13:00 +36°C° 1.5 mm 5 mps 753 mmHg 67%
    14:00 +36°C° 1.5 mm 5 mps 752 mmHg 66%
    15:00 +36°C° 1.5 mm 5 mps 752 mmHg 65%
    16:00 +35°C° 0.5 mm 4 mps 752 mmHg 70%
    17:00 +34°C° 0.5 mm 4 mps 753 mmHg 75%
    18:00 +33°C° 0.5 mm 3 mps 753 mmHg 79%
    19:00 +31°C° 0.1 mm 3 mps 753 mmHg 81%
    20:00 +31°C° 0.1 mm 3 mps 754 mmHg 83%
    21:00 +30°C° 0.1 mm 3 mps 754 mmHg 85%
    22:00 +30°C° 0.4 mm 3 mps 754 mmHg 86%
    23:00 +30°C° 0.4 mm 3 mps 754 mmHg 87%
    Show more